Location: Mission Viejo Division
(33.5624°N, 117.5924°W)
Time: 08:08:35
(UTC+00:00)

Cosmos 1025 Rocket - Pass Details

Date: 22 May 2024
Orbit: 589 x 615 km, 82.5° (Epoch: 23 June)

Event Time Altitude Azimuth Distance (km) Brightness Sun altitude
Exits shadow 12:07:04 - 219° (SW) 2,117 5.2 -7.8°
Reaches altitude 10° 12:07:30 10° 221° (SW) 1,965 5.0 -7.7°
Maximum altitude 12:11:16 28° 282° (WNW) 1,147 4.1 -7.1°
Drops below altitude 10° 12:15:05 10° 342° (NNW) 1,979 5.8 -6.4°
Sets 12:17:34 0° 354° (N) 2,888 6.8 -5.9°
